Back to catalog

SCOUT G-1 DEB

AlivePO
NORAD 44570·DEBRIS·🇺🇸 United States

Launched Aug 3, 1985 from Vandenberg Space Force Base

Loading…

Next Passes (next 24 hours)

TLE

StaleSource: Space-Track

Epoch: Aug 31, 2026, 09:44 UTC

1 44570U 85066J   26243.40579030  .00000495  00000-0  85207-3 0  9993
2 44570  90.1570  97.4123 0161534  66.7746  51.5544 13.38022039609185

Track SCOUT G-1 DEB in real time with AllMySat

Download on the App Store